Маштага

Азербайджан     40°31′46″N   50°00′19″E
темп.,
°C
ветер,
м/с
пор.,
м/с
влажн.,
%
обл.,
%
осадки,
мм/ч
давл.,
гПа
погр.,
м
23 апреля, пт
пт2301:00+13ссз101674100 0.1 1017474
04:00+13ссз9157495 0.1 1017568
07:00+13ссз111675100 0.0 1019648
10:00+14ссз1418650 0.0 1021830
13:00+15ссз1417642 0.0 1022880
16:00+15ссз1217622 0.0 1022926
19:00+14ссз1015682 0.0 1023738
22:00+14с610680 0.0 1025442
24 апреля, сб
сб2401:00+13с36680 0.0 1023215
04:00+14ююз22665 0.0 102274
07:00+13ююз57715 0.0 1021310
10:00+16ююз79524 0.0 1021513
13:00+18ю89425 0.0 1019597
16:00+19ю894198 0.0 1017497
19:00+17ю6750100 0.0 1018393
22:00+16з3456100 0.0 1020354
25 апреля, вс
вс2501:00+13ссз7107261 0.0 1020329
04:00+13ссз7127035 0.0 1020375
07:00+13ссз69678 0.0 1020305
10:00+17ссз564795 0.0 1020360
13:00+19с22405 0.0 1019679
16:00+21вюв12380 0.0 1017746
19:00+19всв11450 0.0 1016409
22:00+18ююз23500 0.0 1016311
26 апреля, пн
пн2601:00+17ю56540 0.0 1014205
04:00+15ююз58630 0.0 1013234
07:00+16ююз711650 0.0 1012291
10:00+18зсз45520 0.0 1013453
13:00+17ссз545438 0.0 1012518
16:00+18ссз4352100 0.0 1010445
19:00+16ссз445936 0.0 1010308
22:00+14с5668100 0.0 1011265
27 апреля, вт
вт2701:00+14ссз797075 0.0 1011322
04:00+14ссз131961100 0.0 1011663
07:00+15ссз131961100 0.0 1013775
10:00+16ссз12165949 0.0 1015670
13:00+16ссз11146083 0.0 1015644
16:00+15с12157067 0.0 1015643
19:00+14ссз101473100 0.0 1018544
22:00+13с121776100 0.1 1017570